Погода в Хэнъяне

Китай     26°53′59″N   112°34′51″E
темп.,
°C
ветер,
м/с
пор.,
м/с
влажн.,
%
обл.,
%
осадки,
мм/ч
давл.,
гПа
погр.,
м
17 мая, вт
вт1723:00+16зюз118517 0.0 101711
02:00+16с0086100 0.0 101611
05:00+15юз1189100 0.0 101611
08:00+17ююз1182100 0.0 1017211
11:00+22юв1167100 0.0 1016739
14:00+23в0158100 0.0 10151059
17:00+24вюв2256100 0.0 10131185
20:00+19в2273100 0.0 101413
18 мая, ср
ср1823:00+19всв1173100 0.0 101511
02:00+18ю1177100 0.0 101411
05:00+18сз118199 0.0 101511
08:00+19вюв2377100 0.0 1015216
11:00+23юв126263 0.0 1015718
14:00+26вюв1254100 0.0 10131137
17:00+22с457673 0.0 1012234
20:00+19с348163 0.0 101482
19 мая, чт
чт1923:00+19ссз358387 0.0 1015211
02:00+18ссз3485100 0.0 1014205
05:00+17ссз2390100 0.4 1014204
08:00+18ссз118889 0.6 1015271
11:00+18ссз2387100 0.0 1015340
14:00+22в227848 0.0 1013707
17:00+22с327699 0.0 1011609
20:00+18с3489100 0.0 1013232
20 мая, пт
пт2023:00+17ссз2389100 0.0 1014184
02:00+17с1296100 3.1 1012152
05:00+17ссз2398100 5.6 1012183
08:00+17с1195100 9.8 1013162
11:00+17с1297100 3.8 1013148
14:00+18ссз1396100 7.3 1011196
17:00+17ссз2398100 6.6 1010209
20:00+17сз1198100 10.3 101157
21 мая, сб
сб2123:00+17сз1197100 0.4 101146
02:00+17сз1296100 0.6 100952
05:00+17ссв1195100 0.1 100928
08:00+18св0194100 0.1 101085
11:00+19з118880 0.0 1010294
14:00+20юз1187100 0.1 1008183
17:00+20зюз1189100 0.0 1007220
20:00+19зюз1192100 0.0 100811